Location: Ferintosh
(52.7647°N, 112.9692°W)
Time: 19:46:34
(UTC+00:00)

A-11 Canister half - Pass Details

Date: 24 May 2024
Orbit: 1515 x 1685 km, 47.2° (Epoch: 12 June)

Event Time Altitude Azimuth Distance (km) Brightness Sun altitude
Rises 16:29:09 0° 284° (WNW) 4,671 11.1 43.2°
Reaches altitude 10° 16:33:30 10° 267° (W) 3,677 10.7 43.8°
Maximum altitude 16:38:55 17° 230° (SW) 3,125 10.6 44.5°
Drops below altitude 10° 16:44:21 10° 193° (SSW) 3,681 11.3 45.3°
Sets 16:48:45 0° 175° (S) 4,677 11.9 45.8°
